TimeEST,TemperatureF,Dew PointF,Humidity,Sea Level PressureIn,VisibilityMPH,Wind Direction,Wind SpeedMPH,Gust SpeedMPH,PrecipitationIn,Events,Conditions,WindDirDegrees,DateUTC
12:54 AM,30.9,28.9,92,30.30,6.0,NW,4.6,-,0.00,Snow,Light Snow,320,2013-03-08 05:54:00
1:21 AM,30.2,28.4,93,30.27,1.5,NNW,4.6,-,0.00,Snow,Light Snow,340,2013-03-08 06:21:00
1:33 AM,30.2,28.4,93,30.27,4.0,NNW,4.6,-,0.00,Snow,Light Snow,340,2013-03-08 06:33:00
1:54 AM,30.9,28.9,92,30.30,9.0,NNW,6.9,-,0.00,Snow,Light Snow,340,2013-03-08 06:54:00
2:34 AM,30.2,30.2,100,30.27,7.0,NNW,6.9,-,0.00,Snow,Light Snow,330,2013-03-08 07:34:00
2:54 AM,30.9,30.0,96,30.30,8.0,NNW,5.8,-,0.00,,Overcast,330,2013-03-08 07:54:00
3:54 AM,30.9,28.9,92,30.32,9.0,NNW,4.6,-,N/A,,Overcast,330,2013-03-08 08:54:00
4:50 AM,30.2,28.4,93,30.30,9.0,North,5.8,-,N/A,,Overcast,350,2013-03-08 09:50:00
4:54 AM,30.9,28.9,92,30.33,10.0,NNW,5.8,-,N/A,,Overcast,340,2013-03-08 09:54:00
5:54 AM,30.9,28.9,92,30.35,10.0,NNW,5.8,-,N/A,,Overcast,340,2013-03-08 10:54:00
6:54 AM,30.9,28.9,92,30.37,10.0,NNW,6.9,-,N/A,,Overcast,330,2013-03-08 11:54:00
7:54 AM,32.0,27.0,82,30.39,10.0,North,8.1,-,N/A,,Mostly Cloudy,10,2013-03-08 12:54:00
8:54 AM,35.1,21.0,57,30.40,10.0,North,9.2,-,N/A,,Mostly Cloudy,10,2013-03-08 13:54:00
9:54 AM,36.0,19.9,52,30.41,10.0,North,12.7,18.4,N/A,,Mostly Cloudy,10,2013-03-08 14:54:00
10:54 AM,36.0,19.9,52,30.41,10.0,NNE,12.7,19.6,N/A,,Mostly Cloudy,20,2013-03-08 15:54:00
11:54 AM,39.0,23.0,53,30.40,10.0,North,11.5,19.6,N/A,,Scattered Clouds,360,2013-03-08 16:54:00
12:54 PM,41.0,23.0,49,30.38,10.0,North,9.2,-,N/A,,Scattered Clouds,360,2013-03-08 17:54:00
1:54 PM,42.1,24.1,49,30.37,10.0,North,8.1,20.7,N/A,,Scattered Clouds,360,2013-03-08 18:54:00
2:54 PM,41.0,24.1,51,30.38,10.0,North,9.2,-,N/A,,Mostly Cloudy,360,2013-03-08 19:54:00
3:54 PM,42.1,26.1,53,30.38,10.0,WNW,9.2,-,N/A,,Scattered Clouds,300,2013-03-08 20:54:00
4:54 PM,39.9,25.0,55,30.39,10.0,NW,11.5,-,N/A,,Scattered Clouds,320,2013-03-08 21:54:00
5:54 PM,39.0,25.0,57,30.40,10.0,NW,5.8,-,N/A,,Scattered Clouds,320,2013-03-08 22:54:00
6:54 PM,37.9,24.1,57,30.41,10.0,West,3.5,-,N/A,,Partly Cloudy,280,2013-03-08 23:54:00
7:54 PM,37.0,24.1,59,30.42,10.0,West,3.5,-,N/A,,Partly Cloudy,270,2013-03-09 00:54:00
8:54 PM,32.0,27.0,82,30.42,10.0,SSW,5.8,-,N/A,,Partly Cloudy,210,2013-03-09 01:54:00
9:54 PM,30.9,28.0,89,30.43,10.0,SW,8.1,-,N/A,,Clear,220,2013-03-09 02:54:00
10:54 PM,30.9,27.0,85,30.42,10.0,SW,5.8,-,N/A,,Partly Cloudy,220,2013-03-09 03:54:00
11:54 PM,30.0,27.0,88,30.41,10.0,SW,4.6,-,N/A,,Partly Cloudy,230,2013-03-09 04:54:00